TimeMST,TemperatureF,Dew PointF,Humidity,Sea Level PressureIn,VisibilityMPH,Wind Direction,Wind SpeedMPH,Gust SpeedMPH,PrecipitationIn,Events,Conditions,WindDirDegrees,DateUTC
12:53 AM,36.0,25.0,64,29.99,10.0,West,16.1,-,N/A,,Clear,260,2012-11-17 07:53:00
1:53 AM,36.0,28.0,73,30.00,9.0,West,13.8,-,N/A,,Clear,260,2012-11-17 08:53:00
2:53 AM,34.0,28.0,79,30.01,8.0,West,11.5,-,N/A,,Clear,260,2012-11-17 09:53:00
3:53 AM,35.1,28.0,76,30.02,8.0,West,16.1,-,N/A,,Clear,270,2012-11-17 10:53:00
5:53 AM,33.1,27.0,78,30.10,9.0,West,11.5,-,N/A,,Clear,270,2012-11-17 12:53:00
6:53 AM,33.1,27.0,78,30.12,8.0,West,11.5,-,N/A,,Clear,270,2012-11-17 13:53:00
7:53 AM,41.0,30.0,65,30.12,10.0,West,4.6,-,N/A,,Clear,280,2012-11-17 14:53:00
8:53 AM,48.0,30.9,52,30.12,10.0,West,3.5,-,N/A,,Clear,280,2012-11-17 15:53:00
9:53 AM,54.0,30.9,41,30.10,10.0,NE,4.6,-,N/A,,Clear,40,2012-11-17 16:53:00
10:53 AM,57.9,30.0,35,30.08,10.0,Variable,4.6,-,N/A,,Clear,0,2012-11-17 17:53:00
11:53 AM,60.1,28.9,31,30.06,10.0,NNW,5.8,-,N/A,,Clear,340,2012-11-17 18:53:00
12:53 PM,61.0,30.0,31,30.03,10.0,Calm,Calm,-,N/A,,Clear,0,2012-11-17 19:53:00
1:53 PM,61.0,28.9,30,30.02,10.0,East,3.5,-,N/A,,Clear,90,2012-11-17 20:53:00
2:53 PM,62.1,28.9,29,30.03,10.0,ESE,8.1,-,N/A,,Clear,110,2012-11-17 21:53:00
3:53 PM,59.0,28.9,32,30.04,10.0,SE,9.2,-,N/A,,Clear,130,2012-11-17 22:53:00
4:53 PM,50.0,28.9,44,30.07,10.0,SE,9.2,-,N/A,,Clear,130,2012-11-17 23:53:00
5:53 PM,45.0,27.0,49,30.09,10.0,SE,8.1,-,N/A,,Clear,130,2012-11-18 00:53:00
6:53 PM,46.9,27.0,46,30.08,10.0,SE,11.5,-,N/A,,Clear,140,2012-11-18 01:53:00
7:53 PM,45.0,27.0,49,30.06,10.0,SSE,15.0,-,N/A,,Clear,160,2012-11-18 02:53:00
8:53 PM,43.0,26.1,51,30.04,10.0,SSE,11.5,-,N/A,,Clear,160,2012-11-18 03:53:00
9:53 PM,43.0,26.1,51,30.01,10.0,South,13.8,-,N/A,,Clear,170,2012-11-18 04:53:00
10:53 PM,44.1,26.1,49,29.99,10.0,South,11.5,-,N/A,,Clear,170,2012-11-18 05:53:00
11:53 PM,43.0,26.1,51,29.97,10.0,South,10.4,-,N/A,,Clear,170,2012-11-18 06:53:00